{"data":{"norad_id":44859,"epoch":"2026-05-25T03:57:06.293088Z","epoch_age_seconds":67617,"freshness":"FRESH","line1":"1 44859U 19089H   26145.16465617  .00002053  00000+0  12324-3 0  9995","line2":"2 44859  36.9657 177.1785 0004077  42.1589 317.9470 15.11677037354507","mean_motion":15.11677037,"eccentricity":0.0004077,"inclination_deg":36.9657,"raan_deg":177.1785,"arg_perigee_deg":42.1589,"mean_anomaly_deg":317.947,"bstar":0.00012324,"rev_number":35450,"period_min":95.258442428798,"perigee_km":528.26837688442,"apogee_km":533.90215672077,"semimajor_km":6909.2222668026,"source":"CELESTRAK","updated_at":"2026-05-25T13:37:56.035966Z"}}